Time,TemperatureF,DewpointF,PressureIn,WindDirection,WindDirectionDegrees,WindSpeedMPH,WindSpeedGustMPH,Humidity,HourlyPrecipIn,Conditions,Clouds,dailyrainin,SolarRadiationWatts/m^2,SoftwareType,DateUTC
2013-03-03 00:01:00,32.0,29.0,-100.00,SSW,202,11.0,23.0,87,0.00,,,0.00,0.000000,,2013-03-03 07:01:00,
2013-03-03 00:32:00,34.0,28.0,-100.00,SSW,207,13.0,18.0,78,0.00,,,0.00,0.000000,,2013-03-03 07:32:00,
2013-03-03 00:42:00,34.0,28.0,-100.00,SSW,207,13.0,18.0,78,0.00,,,0.00,0.000000,,2013-03-03 07:42:00,
2013-03-03 00:52:00,34.0,28.0,-100.00,SSW,207,13.0,18.0,78,0.00,,,0.00,0.000000,,2013-03-03 07:52:00,
2013-03-03 01:01:00,34.0,28.0,-100.00,SSW,207,13.0,18.0,78,0.00,,,0.00,0.000000,,2013-03-03 08:01:00,
2013-03-03 01:32:00,35.0,28.0,-100.00,SSW,204,12.0,22.0,76,0.00,,,0.00,0.000000,,2013-03-03 08:32:00,
2013-03-03 01:42:00,35.0,28.0,-100.00,SSW,204,12.0,22.0,76,0.00,,,0.00,0.000000,,2013-03-03 08:42:00,
2013-03-03 01:54:00,35.0,28.0,-100.00,SSW,204,12.0,22.0,76,0.00,,,0.00,0.000000,,2013-03-03 08:54:00,
2013-03-03 02:01:00,35.0,28.0,-100.00,SSW,204,12.0,22.0,76,0.00,,,0.00,0.000000,,2013-03-03 09:01:00,
2013-03-03 02:32:00,33.0,29.0,-100.00,SSW,203,7.0,19.0,86,0.00,,,0.00,0.000000,,2013-03-03 09:32:00,
2013-03-03 02:42:00,33.0,29.0,-100.00,SSW,203,7.0,19.0,86,0.00,,,0.00,0.000000,,2013-03-03 09:42:00,
2013-03-03 02:52:00,33.0,29.0,-100.00,SSW,203,7.0,19.0,86,0.00,,,0.00,0.000000,,2013-03-03 09:52:00,
2013-03-03 03:01:00,33.0,29.0,-100.00,SSW,203,7.0,19.0,86,0.00,,,0.00,0.000000,,2013-03-03 10:01:00,
2013-03-03 03:32:00,31.0,30.0,-100.00,SW,214,6.0,12.0,97,0.00,,,-99.99,0.000000,,2013-03-03 10:32:00,
2013-03-03 03:42:00,31.0,30.0,-100.00,SW,214,6.0,12.0,97,0.00,,,-99.99,0.000000,,2013-03-03 10:42:00,
2013-03-03 03:52:00,31.0,30.0,-100.00,SW,214,6.0,12.0,97,0.00,,,-99.99,0.000000,,2013-03-03 10:52:00,
2013-03-03 04:01:00,31.0,30.0,-100.00,SW,214,6.0,12.0,97,0.00,,,-99.99,0.000000,,2013-03-03 11:01:00,
2013-03-03 04:32:00,30.0,29.0,-100.00,SW,230,7.0,18.0,98,0.00,,,0.00,0.000000,,2013-03-03 11:32:00,
2013-03-03 04:42:00,30.0,29.0,-100.00,SW,230,7.0,18.0,98,0.00,,,0.00,0.000000,,2013-03-03 11:42:00,
2013-03-03 04:52:00,30.0,29.0,-100.00,SW,230,7.0,18.0,98,0.00,,,0.00,0.000000,,2013-03-03 11:52:00,
2013-03-03 05:01:00,30.0,29.0,-100.00,SW,230,7.0,18.0,98,0.00,,,0.00,0.000000,,2013-03-03 12:01:00,
2013-03-03 05:32:00,30.0,30.0,-100.00,SSW,200,12.0,15.0,99,0.00,,,0.00,0.000000,,2013-03-03 12:32:00,
2013-03-03 05:43:00,30.0,30.0,-100.00,SSW,200,12.0,15.0,99,0.00,,,0.00,0.000000,,2013-03-03 12:43:00,
2013-03-03 05:52:00,30.0,30.0,-100.00,SSW,200,12.0,15.0,99,0.00,,,0.00,0.000000,,2013-03-03 12:52:00,
2013-03-03 06:01:00,30.0,30.0,-100.00,SSW,200,12.0,15.0,99,0.00,,,0.00,0.000000,,2013-03-03 13:01:00,
2013-03-03 06:32:00,29.0,29.0,-100.00,SSW,208,10.0,15.0,99,0.00,,,0.00,0.000000,,2013-03-03 13:32:00,
2013-03-03 06:42:00,29.0,29.0,-100.00,SSW,208,10.0,15.0,99,0.00,,,0.00,0.000000,,2013-03-03 13:42:00,
2013-03-03 06:52:00,29.0,29.0,-100.00,SSW,208,10.0,15.0,99,0.00,,,0.00,0.000000,,2013-03-03 13:52:00,
2013-03-03 07:01:00,29.0,29.0,-100.00,SSW,208,10.0,15.0,99,0.00,,,0.00,0.000000,,2013-03-03 14:01:00,
2013-03-03 07:32:00,29.0,29.0,-100.00,SW,218,11.0,15.0,98,0.00,,,0.00,0.000000,,2013-03-03 14:32:00,
2013-03-03 07:42:00,29.0,29.0,-100.00,SW,218,11.0,15.0,98,0.00,,,0.00,0.000000,,2013-03-03 14:42:00,
2013-03-03 07:52:00,29.0,29.0,-100.00,SW,218,11.0,15.0,98,0.00,,,0.00,0.000000,,2013-03-03 14:52:00,
2013-03-03 08:01:00,29.0,29.0,-100.00,SW,218,11.0,15.0,98,0.00,,,0.00,0.000000,,2013-03-03 15:01:00,
2013-03-03 08:32:00,29.0,29.0,-100.00,SW,215,10.0,15.0,98,0.00,,,0.00,16.000000,,2013-03-03 15:32:00,
2013-03-03 08:42:00,29.0,29.0,-100.00,SW,215,10.0,15.0,98,0.00,,,0.00,16.000000,,2013-03-03 15:42:00,
2013-03-03 08:52:00,29.0,29.0,-100.00,SW,215,10.0,15.0,98,0.00,,,0.00,16.000000,,2013-03-03 15:52:00,
2013-03-03 09:01:00,29.0,29.0,-100.00,SW,215,10.0,15.0,98,0.00,,,0.00,16.000000,,2013-03-03 16:01:00,
2013-03-03 09:32:00,24.0,22.0,-100.00,West,268,13.0,29.0,91,0.00,,,0.00,47.000000,,2013-03-03 16:32:00,
2013-03-03 09:42:00,24.0,22.0,-100.00,West,268,13.0,29.0,91,0.00,,,0.00,47.000000,,2013-03-03 16:42:00,
2013-03-03 09:52:00,24.0,22.0,-100.00,West,268,13.0,29.0,91,0.00,,,0.00,47.000000,,2013-03-03 16:52:00,
2013-03-03 10:01:00,24.0,22.0,-100.00,West,268,13.0,29.0,91,0.00,,,0.00,47.000000,,2013-03-03 17:01:00,
2013-03-03 10:32:00,20.0,16.0,-100.00,NW,316,24.0,39.0,84,0.00,,,-99.99,97.000000,,2013-03-03 17:32:00,
2013-03-03 10:42:00,20.0,16.0,-100.00,NW,316,24.0,39.0,84,0.00,,,-99.99,97.000000,,2013-03-03 17:42:00,
2013-03-03 10:52:00,20.0,16.0,-100.00,NW,316,24.0,39.0,84,0.00,,,-99.99,97.000000,,2013-03-03 17:52:00,
2013-03-03 11:01:00,20.0,16.0,-100.00,NW,316,24.0,39.0,84,0.00,,,-99.99,97.000000,,2013-03-03 18:01:00,
2013-03-03 11:32:00,19.0,14.0,-100.00,WNW,300,20.0,36.0,79,0.00,,,0.00,146.000000,,2013-03-03 18:32:00,
2013-03-03 11:42:00,19.0,14.0,-100.00,WNW,300,20.0,36.0,79,0.00,,,0.00,146.000000,,2013-03-03 18:42:00,
2013-03-03 11:52:00,19.0,14.0,-100.00,WNW,300,20.0,36.0,79,0.00,,,0.00,146.000000,,2013-03-03 18:52:00,
2013-03-03 12:01:00,19.0,14.0,-100.00,WNW,300,20.0,36.0,79,0.00,,,0.00,146.000000,,2013-03-03 19:01:00,
2013-03-03 12:32:00,22.0,12.0,-100.00,West,275,15.0,32.0,65,0.00,,,0.00,344.000000,,2013-03-03 19:32:00,
2013-03-03 12:42:00,22.0,12.0,-100.00,West,275,15.0,32.0,65,0.00,,,0.00,344.000000,,2013-03-03 19:42:00,
2013-03-03 12:52:00,22.0,12.0,-100.00,West,275,15.0,32.0,65,0.00,,,0.00,344.000000,,2013-03-03 19:52:00,
2013-03-03 13:01:00,22.0,12.0,-100.00,West,275,15.0,32.0,65,0.00,,,0.00,344.000000,,2013-03-03 20:01:00,
2013-03-03 13:32:00,25.0,8.0,-100.00,WSW,237,18.0,35.0,48,0.01,,,0.01,775.000000,,2013-03-03 20:32:00,
2013-03-03 13:42:00,25.0,8.0,-100.00,WSW,237,18.0,35.0,48,0.01,,,0.01,775.000000,,2013-03-03 20:42:00,
2013-03-03 13:52:00,25.0,8.0,-100.00,WSW,237,18.0,35.0,48,0.01,,,0.01,775.000000,,2013-03-03 20:52:00,
2013-03-03 14:01:00,25.0,8.0,-100.00,WSW,237,18.0,35.0,48,0.01,,,0.01,775.000000,,2013-03-03 21:01:00,
2013-03-03 14:32:00,26.0,4.0,-100.00,WSW,250,15.0,34.0,38,0.00,,,0.01,718.000000,,2013-03-03 21:32:00,
2013-03-03 14:42:00,26.0,4.0,-100.00,WSW,250,15.0,34.0,38,0.00,,,0.01,718.000000,,2013-03-03 21:42:00,
2013-03-03 14:52:00,26.0,4.0,-100.00,WSW,250,15.0,34.0,38,0.00,,,0.01,718.000000,,2013-03-03 21:52:00,
2013-03-03 15:01:00,26.0,4.0,-100.00,WSW,250,15.0,34.0,38,0.00,,,0.01,718.000000,,2013-03-03 22:01:00,
2013-03-03 15:32:00,28.0,5.0,-100.00,WNW,282,12.0,37.0,36,0.00,,,0.01,701.000000,,2013-03-03 22:32:00,
2013-03-03 15:42:00,28.0,5.0,-100.00,WNW,282,12.0,37.0,36,0.00,,,0.01,701.000000,,2013-03-03 22:42:00,
2013-03-03 15:52:00,28.0,5.0,-100.00,WNW,282,12.0,37.0,36,0.00,,,0.01,701.000000,,2013-03-03 22:52:00,
2013-03-03 16:01:00,28.0,5.0,-100.00,WNW,282,12.0,37.0,36,0.00,,,0.01,701.000000,,2013-03-03 23:01:00,
2013-03-03 16:32:00,22.0,6.0,-100.00,WNW,286,9.0,25.0,49,0.01,,,0.02,511.000000,,2013-03-03 23:32:00,
2013-03-03 16:42:00,22.0,6.0,-100.00,WNW,286,9.0,25.0,49,0.01,,,0.02,511.000000,,2013-03-03 23:42:00,
2013-03-03 16:52:00,22.0,6.0,-100.00,WNW,286,9.0,25.0,49,0.01,,,0.02,511.000000,,2013-03-03 23:52:00,
2013-03-03 17:01:00,22.0,6.0,-100.00,WNW,286,9.0,25.0,49,0.01,,,0.02,511.000000,,2013-03-04 00:01:00,
2013-03-03 17:32:00,19.0,10.0,-100.00,West,276,18.0,26.0,66,0.00,,,0.02,61.000000,,2013-03-04 00:32:00,
2013-03-03 17:42:00,19.0,10.0,-100.00,West,276,18.0,26.0,66,0.00,,,0.02,61.000000,,2013-03-04 00:42:00,
2013-03-03 17:52:00,19.0,10.0,-100.00,West,276,18.0,26.0,66,0.00,,,0.02,61.000000,,2013-03-04 00:52:00,
2013-03-03 18:01:00,19.0,10.0,-100.00,West,276,18.0,26.0,66,0.00,,,0.02,61.000000,,2013-03-04 01:01:00,
2013-03-03 18:32:00,19.0,8.0,-100.00,West,266,15.0,30.0,62,0.00,,,0.02,26.000000,,2013-03-04 01:32:00,
2013-03-03 18:42:00,19.0,8.0,-100.00,West,266,15.0,30.0,62,0.00,,,0.02,26.000000,,2013-03-04 01:42:00,
2013-03-03 18:52:00,19.0,8.0,-100.00,West,266,15.0,30.0,62,0.00,,,0.02,26.000000,,2013-03-04 01:52:00,
2013-03-03 19:01:00,19.0,8.0,-100.00,West,266,15.0,30.0,62,0.00,,,0.02,26.000000,,2013-03-04 02:01:00,
2013-03-03 19:32:00,18.0,7.0,-100.00,West,264,11.0,20.0,62,0.00,,,0.02,3.000000,,2013-03-04 02:32:00,
2013-03-03 19:42:00,18.0,7.0,-100.00,West,264,11.0,20.0,62,0.00,,,0.02,3.000000,,2013-03-04 02:42:00,
2013-03-03 19:52:00,18.0,7.0,-100.00,West,264,11.0,20.0,62,0.00,,,0.02,3.000000,,2013-03-04 02:52:00,
2013-03-03 20:01:00,18.0,7.0,-100.00,West,264,11.0,20.0,62,0.00,,,0.02,3.000000,,2013-03-04 03:01:00,
2013-03-03 20:32:00,18.0,8.0,-100.00,WNW,296,8.0,18.0,64,0.00,,,0.02,0.000000,,2013-03-04 03:32:00,
2013-03-03 20:42:00,18.0,8.0,-100.00,WNW,296,8.0,18.0,64,0.00,,,0.02,0.000000,,2013-03-04 03:42:00,
2013-03-03 20:52:00,18.0,8.0,-100.00,WNW,296,8.0,18.0,64,0.00,,,0.02,0.000000,,2013-03-04 03:52:00,
2013-03-03 21:01:00,18.0,8.0,-100.00,WNW,296,8.0,18.0,64,0.00,,,0.02,0.000000,,2013-03-04 04:01:00,
2013-03-03 21:32:00,17.0,8.0,-100.00,SW,234,7.0,16.0,68,0.00,,,0.02,0.000000,,2013-03-04 04:32:00,
2013-03-03 21:42:00,17.0,8.0,-100.00,SW,234,7.0,16.0,68,0.00,,,0.02,0.000000,,2013-03-04 04:42:00,
2013-03-03 21:52:00,17.0,8.0,-100.00,SW,234,7.0,16.0,68,0.00,,,0.02,0.000000,,2013-03-04 04:52:00,
2013-03-03 22:01:00,17.0,8.0,-100.00,SW,234,7.0,16.0,68,0.00,,,0.02,0.000000,,2013-03-04 05:01:00,
2013-03-03 22:32:00,16.0,12.0,-100.00,West,268,6.0,19.0,84,0.00,,,0.02,0.000000,,2013-03-04 05:32:00,
2013-03-03 22:42:00,16.0,12.0,-100.00,West,268,6.0,19.0,84,0.00,,,0.02,0.000000,,2013-03-04 05:42:00,
2013-03-03 22:52:00,16.0,12.0,-100.00,West,268,6.0,19.0,84,0.00,,,0.02,0.000000,,2013-03-04 05:52:00,
2013-03-03 23:01:00,16.0,12.0,-100.00,West,268,6.0,19.0,84,0.00,,,0.02,0.000000,,2013-03-04 06:01:00,
2013-03-03 23:32:00,15.0,13.0,-100.00,SSW,202,8.0,13.0,90,0.00,,,0.02,0.000000,,2013-03-04 06:32:00,
2013-03-03 23:42:00,15.0,13.0,-100.00,SSW,202,8.0,13.0,90,0.00,,,0.02,0.000000,,2013-03-04 06:42:00,
2013-03-03 23:52:00,15.0,13.0,-100.00,SSW,202,8.0,13.0,90,0.00,,,0.02,0.000000,,2013-03-04 06:52:00,